Back to catalog

STARLINK-37288

AliveCommunicationsVLEO
NORAD 68551·PAYLOAD·🇺🇸 United States

Launched Apr 2, 2026 from Cape Canaveral Space Force Station

Loading…

Next Passes (next 24 hours)

TLE

FreshSource: CelesTrak SupGP

Epoch: Sep 14, 2026, 16:00 UTC

1 68551C 26070K   26257.66715278  .00053387  00000+0  15779-2 0  2577
2 68551  53.1577 201.0168 0001408  91.7204 189.4567 15.34351870    17

Track STARLINK-37288 in real time with AllMySat

Download on the App Store